Jackson, MI

5:55 AM EST on November 14, 2019 (GMT -0500)
Jackson County-Reynolds

Weather History for KJXN - June, 2019

Change the Weather History Date:

Tuesday, June 4, 2019

  Actual Average Record
Temperature  
Mean Temperature 60 °F 64 °F  
Max Temperature 74 °F 75 °F 90 °F (1977)
Min Temperature 46 °F 53 °F 34 °F (1988)
Degree Days  
Heating Degree Days 5 3  
Month to date heating degree days 21 15  
Since 1 June heating degree days 21 15  
Since 1 July heating degree days 6657 6617  
Cooling Degree Days 0 2  
Month to date cooling degree days 2 8  
Year to date cooling degree days 12 45  
Since 1 June cooling degree days 2 8  
Growing Degree Days 10 (Base 50)    
Moisture  
Dew Point 51 °F    
Average Humidity 75    
Maximum Humidity 100    
Minimum Humidity 49    
Precipitation  
Precipitation 0.00 in 0.10 in 0.72 in (1993)
Month to date precipitation 0.79 0.41  
Year to date precipitation 12.80 11.01  
Sea Level Pressure  
Sea Level Pressure 29.99 in    
Wind  
Wind Speed 7 mph (SSW)    
Max Wind Speed 21 mph    
Max Gust Speed 29 mph    
Visibility 10 miles    
Events      
T = Trace of Precipitation, MM = Missing Value Source: NWS Daily Summary

Daily Weather History Graph

Daily Weather History Graph

Search for Another Location

Airport or City:

Astronomy

Jun. 04, 2019 Rise Set
Actual Time 6:02 AM EDT 9:09 PM EDT
Civil Twilight 5:28 AM EDT 9:44 PM EDT
Nautical Twilight 4:45 AM EDT 10:27 PM EDT
Astronomical Twilight 3:53 AM EDT 11:19 PM EDT
Moon 7:11 AM EDT (6/4) 10:37 PM EDT (6/4)
Length of Visible Light 16h 15m
Length of Day
15h 07m
New Moon, 2% of the Moon is Illuminated
Jun 4
New Moon
Jun 10
First Quarter
Jun 17
Full
Jun 25
Last Quarter
Jul 2
New

Hourly Weather History & Observations

Time (EDT) Temp. Dew Point Humidity Pressure Visibility Wind Dir Wind Speed Gust Speed Precip Events Conditions
12:56 AM 48.9 °F 46.0 °F 90% 30.12 in 10.0 mi SSW 3.5 mph - N/A   Clear
1:56 AM 48.0 °F 45.0 °F 89% 30.10 in 10.0 mi Calm Calm - N/A   Clear
2:56 AM 46.9 °F 46.0 °F 97% 30.10 in 10.0 mi Calm Calm - N/A   Clear
3:56 AM 46.9 °F 44.1 °F 90% 30.10 in 10.0 mi South 3.5 mph - N/A   Clear
4:56 AM 46.9 °F 44.1 °F 90% 30.09 in 10.0 mi Calm Calm - N/A   Clear
5:56 AM 46.0 °F 44.1 °F 93% 30.09 in 10.0 mi Calm Calm - N/A   Scattered Clouds
6:56 AM 46.9 °F 45.0 °F 93% 30.08 in 10.0 mi Calm Calm - N/A   Clear
7:56 AM 55.9 °F 45.0 °F 67% 30.06 in 10.0 mi South 5.8 mph - N/A   Clear
8:56 AM 62.1 °F 46.9 °F 58% 30.05 in 10.0 mi South 6.9 mph - N/A   Partly Cloudy
9:56 AM 66.0 °F 50.0 °F 56% 30.04 in 10.0 mi SSW 9.2 mph - N/A   Overcast
10:56 AM 68.0 °F 53.1 °F 59% 30.04 in 10.0 mi SSW 10.4 mph - N/A   Overcast
11:56 AM 69.1 °F 53.1 °F 57% 30.03 in 10.0 mi SW 13.8 mph - N/A   Overcast
12:56 PM 70.0 °F 53.1 °F 55% 30.01 in 10.0 mi SW 11.5 mph 19.6 mph N/A   Mostly Cloudy
1:56 PM 71.1 °F 52.0 °F 51% 30.00 in 10.0 mi SW 16.1 mph 25.3 mph N/A   Mostly Cloudy
2:56 PM 72.0 °F 54.0 °F 53% 29.97 in 10.0 mi SSW 12.7 mph - N/A   Mostly Cloudy
3:56 PM 72.0 °F 54.0 °F 53% 29.94 in 10.0 mi SW 16.1 mph 25.3 mph N/A   Clear
4:56 PM 72.0 °F 55.0 °F 55% 29.91 in 10.0 mi SSW 12.7 mph - N/A   Clear
5:56 PM 73.0 °F 55.0 °F 53% 29.89 in 10.0 mi SSW 10.4 mph - N/A   Scattered Clouds
6:56 PM 73.0 °F 57.0 °F 57% 29.88 in 10.0 mi SSW 8.1 mph - N/A   Mostly Cloudy
7:56 PM 72.0 °F 57.0 °F 59% 29.86 in 10.0 mi SSE 4.6 mph - N/A   Overcast
8:56 PM 69.1 °F 57.9 °F 68% 29.83 in 10.0 mi SE 6.9 mph - N/A   Partly Cloudy
9:56 PM 66.9 °F 59.0 °F 76% 29.84 in 10.0 mi SE 5.8 mph - N/A   Partly Cloudy
10:56 PM 68.0 °F 60.1 °F 76% 29.84 in 10.0 mi SE 5.8 mph - N/A   Overcast
11:56 PM 64.0 °F 59.0 °F 84% 29.83 in 10.0 mi Calm Calm - N/A   Clear